Theta_e
323 317 313 312 310 309 304 300 293 291 284 284 280 283 288 290 289 289 290 291 292 294 294 296 294 296 296 294 295 299 300 292 292 288 291 296 305 316 319 327 331 334 341 344 347 347 344 342 348 345 343 343 345 350 350 349 349 349 349 349 349 348 348 347 348 347 348 348 348 348 348 348 348 347 347 346 346 345 345 344 343 343 342 340 339 339 338 338 338 338 338 338 338 338 339 340 341
317 313 311 310 311 308 304 294 287 281 282 282 284 283 285 287 290 288 289 290 292 299 299 300 301 302 302 302 302 300 298 305 296 301 301 307 315 316 322 330 331 336 339 346 348 345 344 344 346 344 344 344 344 350 350 349 349 349 349 348 347 347 347 347 347 346 347 348 348 348 347 347 348 347 346 346 345 344 344 344 343 343 342 340 338 336 335 338 338 337 337 337 337 337 338 338 340
313 314 311 311 306 304 298 295 293 279 281 282 281 283 285 290 289 290 288 291 293 297 293 294 295 295 298 299 298 295 295 306 310 307 311 313 316 318 321 327 338 336 343 348 347 344 343 344 343 341 343 344 345 350 350 349 349 348 348 347 347 346 346 347 346 346 347 347 347 347 346 347 347 347 346 346 345 345 344 343 343 342 341 339 338 335 334 337 338 337 336 337 337 336 337 338 338
312 315 308 306 305 297 292 285 283 283 281 277 280 285 286 289 288 289 289 291 293 291 293 295 297 298 298 296 298 300 299 306 311 312 309 315 314 317 321 326 336 344 346 347 348 345 343 340 345 340 344 344 344 347 349 349 349 348 348 347 346 346 346 346 346 346 346 346 347 346 346 346 347 347 346 345 344 344 343 343 342 342 341 339 337 335 333 336 337 336 336 336 336 336 336 337 337
314 314 308 304 300 299 288 286 281 280 282 280 283 283 286 286 289 289 289 289 288 290 294 294 297 297 298 298 297 297 300 303 302 310 311 310 313 318 322 326 339 344 345 348 348 346 342 341 344 344 345 345 347 346 348 349 348 348 349 348 346 346 345 346 345 346 346 346 346 346 346 346 347 346 345 343 343 343 342 342 341 340 339 338 336 334 333 335 336 336 336 336 336 335 335 335 338
308 306 306 305 302 298 291 288 287 287 284 283 283 287 284 287 289 287 289 291 292 290 292 294 297 297 301 304 304 303 307 304 309 312 312 314 321 323 323 326 342 343 346 348 347 344 341 341 342 347 348 347 347 346 346 349 348 348 347 346 345 345 345 345 345 346 346 346 346 346 346 346 345 344 343 343 343 342 342 341 340 339 338 336 334 332 332 333 336 336 335 335 335 334 334 336 337
311 301 300 301 296 296 291 283 284 281 291 285 288 286 288 287 289 290 292 293 293 295 292 298 298 297 297 300 299 309 311 314 313 315 315 320 321 322 324 329 342 342 345 347 347 343 340 342 345 348 344 344 347 347 346 348 348 348 347 346 345 345 345 346 345 346 346 346 346 346 345 344 344 343 343 343 342 341 342 341 340 339 337 335 332 331 331 333 335 336 335 334 334 333 334 337 338
307 306 297 293 289 287 284 283 285 283 289 286 288 287 288 288 287 290 290 292 292 294 296 295 290 293 294 301 295 306 303 311 315 313 315 320 322 323 326 336 341 342 345 346 346 344 342 341 344 345 346 345 339 347 346 346 346 348 348 346 345 346 346 346 346 346 347 346 346 346 345 345 344 343 343 342 342 341 341 340 339 338 337 334 330 329 329 332 335 335 335 333 332 333 334 336 337
300 300 295 293 288 285 281 285 286 285 286 287 287 288 299 288 288 289 291 290 292 291 295 296 291 294 294 300 298 303 302 305 301 306 317 323 327 329 330 333 340 341 343 345 346 345 342 339 343 344 346 345 345 346 346 346 346 347 347 346 346 346 346 346 346 346 346 346 346 345 344 344 342 343 342 342 341 341 341 339 339 338 336 332 329 328 328 331 334 334 334 333 332 332 334 336 336
297 298 292 290 285 286 281 285 286 289 289 288 289 293 290 288 289 290 291 292 293 293 295 292 291 294 295 298 298 300 304 301 301 316 316 324 327 331 333 335 335 340 342 345 345 345 343 343 340 344 345 346 345 345 347 347 345 347 347 347 346 346 345 346 346 346 346 346 345 345 344 343 342 342 343 342 342 341 340 339 338 338 335 333 330 328 329 331 333 334 333 332 331 332 333 334 334
293 292 292 288 283 282 284 284 282 285 290 287 288 288 289 288 290 289 290 293 291 294 296 294 298 296 296 297 296 300 298 299 314 314 312 322 327 329 332 336 339 340 342 343 345 345 344 344 340 339 342 343 345 346 346 344 345 346 347 347 346 346 345 345 346 346 346 345 345 344 344 343 342 341 342 342 341 340 339 338 338 336 334 334 331 329 329 331 331 332 331 331 330 331 332 332 331
294 290 288 281 283 284 281 284 286 286 287 287 294 292 290 290 290 291 292 293 293 292 293 295 296 295 294 291 296 298 297 302 300 302 317 323 327 328 330 330 330 331 334 340 344 345 344 342 342 340 338 340 341 343 343 343 345 346 346 346 347 346 346 345 345 345 345 345 345 344 343 343 342 341 341 341 340 339 338 338 337 336 334 333 332 329 327 327 328 328 328 328 328 328 329 330 328
290 289 286 286 285 285 284 284 287 291 284 287 291 294 290 290 292 290 289 291 289 292 294 292 294 297 293 294 295 294 300 300 301 313 320 322 324 324 324 322 321 322 323 326 330 331 334 341 342 341 338 335 334 337 338 341 342 344 346 346 346 346 346 346 345 345 345 344 344 344 343 343 342 340 340 340 339 338 338 337 336 335 333 332 331 330 326 324 324 324 323 324 325 326 326 326 325
291 289 288 288 282 282 283 285 283 287 286 288 288 290 291 292 292 289 291 292 292 291 294 294 296 294 294 294 295 294 294 299 308 319 314 315 318 319 319 320 319 320 321 321 321 323 324 327 329 333 338 340 341 335 333 335 337 340 342 343 343 343 344 345 344 344 344 344 342 340 339 339 340 341 340 340 339 338 337 336 335 334 333 332 331 330 328 324 323 322 323 323 323 322 322 322 322
295 288 285 282 282 285 283 286 288 283 287 287 294 292 293 294 288 289 290 290 292 292 295 296 296 294 292 294 290 293 295 302 313 314 310 312 314 316 317 317 317 318 319 319 320 319 320 321 323 324 328 337 341 340 339 336 334 336 337 338 339 341 342 340 340 341 340 339 338 336 335 334 333 334 335 336 337 335 334 332 335 333 333 332 331 330 328 324 323 322 321 322 323 322 320 320 321
292 289 284 285 284 284 286 285 282 284 287 287 292 288 292 294 290 293 292 293 293 295 294 297 296 294 295 293 295 293 296 303 313 309 310 310 313 315 316 316 316 316 316 317 316 316 319 319 319 321 323 325 334 340 339 338 331 331 335 335 336 337 338 338 338 337 333 331 329 330 328 329 329 330 328 331 331 333 331 330 332 333 332 332 331 330 328 325 324 324 321 321 322 322 323 322 321
293 288 285 280 286 285 286 286 286 287 286 287 288 292 292 293 293 293 293 294 295 295 294 295 297 297 294 294 296 297 300 308 312 309 310 308 308 312 314 314 315 316 315 315 314 315 316 316 317 320 320 323 325 335 339 340 336 330 331 329 329 332 334 334 333 327 324 322 324 323 325 328 328 330 330 331 325 329 323 326 330 333 332 331 330 329 327 325 325 325 323 323 322 320 317 317 317
290 285 282 284 281 284 286 288 288 287 289 291 291 290 291 291 293 295 294 294 292 293 294 294 296 298 297 298 297 299 302 315 309 310 305 304 302 309 313 309 310 312 312 312 313 313 314 315 315 318 319 321 322 325 336 339 335 334 337 335 332 329 328 326 329 332 329 330 323 328 331 327 327 329 331 329 330 328 327 324 325 330 332 331 330 328 327 326 325 325 324 324 322 319 314 307 308
287 282 281 285 283 287 289 287 289 290 292 289 290 288 291 291 292 295 293 291 291 295 295 293 295 296 300 299 299 303 309 311 307 306 305 304 304 305 306 306 309 310 311 311 312 312 313 313 314 316 318 319 320 321 327 338 337 337 338 336 333 329 329 329 332 330 332 330 331 332 330 329 328 330 331 330 329 324 327 323 325 328 330 330 329 329 327 326 325 324 324 321 319 315 309 308 307
289 285 288 281 285 286 287 287 290 290 289 290 290 290 291 293 293 294 294 290 290 292 291 294 293 295 297 298 299 301 304 302 302 304 302 300 300 301 301 304 307 306 307 308 309 311 312 312 312 314 316 318 320 320 323 333 338 337 338 336 334 332 332 333 333 332 332 331 331 332 332 330 328 329 328 325 325 328 325 322 323 323 324 324 322 322 323 323 323 321 320 317 314 310 308 308 307
291 285 281 290 286 291 292 286 288 288 290 290 289 290 292 292 291 293 290 292 290 290 290 295 295 294 298 297 297 299 301 301 300 300 300 299 298 299 300 301 302 305 306 307 307 309 310 311 311 313 316 319 321 319 321 327 335 337 337 337 334 333 333 333 333 332 331 331 332 332 332 330 329 329 329 329 330 329 328 327 326 326 324 320 318 316 314 313 312 311 311 311 309 309 308 307 307
287 290 288 288 286 291 292 287 288 288 288 289 289 292 293 293 293 290 290 291 289 290 291 293 294 295 299 298 297 296 299 300 299 299 299 299 299 299 300 301 301 301 304 306 306 307 309 310 311 313 316 320 322 321 326 327 329 335 337 337 334 333 332 331 331 332 332 332 331 332 331 331 331 331 330 330 329 329 328 327 328 326 324 321 319 316 314 313 312 312 311 309 308 307 307 306 305
293 291 288 286 287 292 291 289 290 289 290 290 290 292 293 292 292 289 289 293 290 291 292 291 292 295 298 298 297 297 297 298 297 298 297 298 298 298 300 300 301 302 301 301 302 304 307 309 312 315 317 321 324 327 329 329 328 330 331 331 331 329 329 328 327 327 328 329 330 329 331 331 331 331 330 329 328 329 327 327 327 326 325 323 322 317 314 313 313 312 310 308 307 307 305 304 303
288 292 289 293 288 293 291 293 288 288 291 291 290 293 294 291 293 291 289 290 290 292 294 293 294 297 299 298 297 298 298 297 296 296 296 297 297 298 298 300 302 302 302 303 303 304 308 311 312 315 321 323 327 328 326 325 326 325 325 325 325 323 325 325 324 324 324 324 326 327 326 328 329 329 329 328 327 328 327 327 326 325 325 323 321 318 314 312 312 311 309 308 307 306 304 302 301
292 292 291 291 290 289 289 289 288 289 289 290 290 294 293 290 291 291 291 292 293 294 294 296 296 297 296 297 296 296 295 294 296 295 295 295 296 298 297 300 302 304 304 304 305 307 309 311 312 315 321 325 325 324 323 322 322 322 322 321 320 320 321 321 322 323 322 322 322 323 325 324 324 325 324 323 324 321 322 323 324 322 322 321 318 315 313 310 309 307 306 306 305 303 302 301 300
292 293 291 290 292 289 289 292 290 289 291 291 294 291 289 290 291 292 294 292 293 293 294 294 295 296 295 295 296 296 296 295 294 295 296 295 295 297 298 300 303 305 306 306 307 308 309 311 312 313 316 319 321 322 320 320 318 319 319 318 317 316 317 319 320 319 320 320 320 321 321 322 321 320 319 319 318 317 318 318 319 319 318 318 316 312 310 308 305 305 305 304 303 302 301 300 299
290 290 290 292 291 290 291 294 291 290 292 291 293 291 292 290 292 292 292 292 292 294 293 292 294 295 294 295 294 294 295 294 296 294 295 295 295 295 299 303 304 305 306 307 307 308 310 310 310 311 313 314 318 318 317 316 315 315 315 316 316 315 315 316 317 318 318 318 318 318 318 319 319 318 318 317 316 315 315 314 313 312 311 310 309 306 305 304 304 304 304 304 303 301 300 299 298
290 291 290 292 289 291 290 290 290 291 295 289 292 291 289 290 291 292 292 292 292 294 292 292 291 292 293 293 294 293 294 293 293 294 296 294 295 296 300 303 305 305 305 306 307 308 309 309 309 310 310 312 314 314 313 313 312 311 312 311 312 313 314 314 314 314 314 316 316 316 316 316 316 316 316 315 314 313 311 310 308 307 306 306 304 303 302 303 303 303 304 303 302 301 299 298 297
291 292 295 290 288 294 291 292 291 292 293 289 290 292 290 289 290 291 288 292 292 292 291 291 291 291 291 291 292 292 293 292 292 293 294 295 295 298 302 304 304 304 306 306 306 307 307 308 308 309 309 310 310 311 310 310 310 310 310 310 309 310 310 311 311 312 312 313 314 314 314 314 314 313 313 311 310 309 307 305 303 302 302 302 303 303 303 303 303 302 302 302 301 300 298 296 295
293 290 290 291 286 288 290 290 289 291 293 288 292 287 286 288 294 290 292 292 291 291 291 291 291 290 290 289 291 292 291 292 292 294 293 294 297 300 303 305 304 304 305 305 306 305 307 308 308 308 308 308 308 309 308 308 308 308 308 308 308 308 309 308 307 308 308 308 310 310 312 312 312 311 310 308 307 305 302 301 300 299 299 300 301 301 301 302 303 303 302 301 301 298 295 294 293
292 290 286 285 286 284 289 289 289 292 291 289 293 287 288 289 289 288 290 292 293 293 292 291 290 290 289 290 290 292 291 291 293 293 292 294 297 300 303 305 303 304 304 304 304 305 305 306 306 305 306 306 307 307 306 305 306 304 305 306 306 306 305 305 306 306 305 305 306 307 308 308 309 309 308 306 304 302 301 300 300 299 299 300 301 302 302 303 303 302 302 299 297 296 295 295 293
286 288 284 279 285 282 286 290 289 292 291 290 292 286 290 294 293 291 291 291 291 292 292 291 290 290 290 289 290 291 292 291 291 292 293 293 296 300 302 303 303 304 304 303 304 304 304 304 305 304 304 304 303 304 304 304 302 302 302 302 304 303 303 302 302 302 302 302 302 302 304 305 306 306 306 305 303 302 300 299 299 300 300 299 300 301 301 301 300 300 300 298 296 294 294 293 293
281 286 282 285 284 282 288 290 287 290 290 291 292 289 285 291 289 287 289 291 290 290 290 290 290 290 290 291 290 290 291 291 291 292 292 292 296 300 303 302 303 304 303 303 303 303 303 303 303 303 302 301 301 302 302 303 301 300 300 300 299 299 300 300 299 299 298 298 299 299 301 302 303 303 303 303 302 300 299 298 297 297 298 299 297 297 298 298 298 298 297 298 296 294 293 292 291
284 282 284 280 285 284 285 288 290 287 290 289 289 288 289 290 288 288 290 290 289 290 291 291 291 291 291 290 290 290 290 291 292 292 292 292 295 298 301 302 303 303 303 304 304 303 302 302 301 301 302 301 300 299 300 300 300 298 298 298 298 296 296 297 296 296 296 296 297 297 298 299 300 300 300 300 299 298 298 297 296 295 295 294 294 293 293 295 295 296 294 294 294 293 291 289 288
278 285 285 285 284 284 285 285 291 289 289 288 288 287 290 292 293 289 290 290 290 291 292 292 291 290 291 291 290 290 290 291 292 292 292 292 295 298 300 302 302 302 303 303 303 302 301 301 301 300 299 299 299 298 298 297 298 298 299 296 296 295 294 294 294 294 295 295 295 296 297 297 298 298 298 297 296 295 294 294 293 293 293 293 293 292 292 292 292 292 291 290 290 290 289 287 286
282 284 284 282 285 284 285 288 288 288 287 286 285 288 290 292 293 293 289 290 290 292 291 290 290 290 291 291 291 291 291 291 292 292 291 292 295 298 300 303 302 302 302 302 301 301 301 300 300 299 298 298 300 299 298 297 297 296 296 295 293 293 293 293 292 292 293 293 294 294 295 296 296 296 296 296 294 293 292 292 292 292 291 291 291 291 291 292 292 291 290 289 288 287 286 286 286
285 283 282 283 284 284 285 286 288 288 288 287 289 288 288 290 291 293 290 288 289 290 290 291 291 291 291 291 291 291 291 291 291 291 291 292 293 295 298 302 301 301 301 301 301 300 300 299 299 298 298 298 298 298 299 297 295 295 294 293 291 292 291 291 291 291 291 291 292 292 293 294 295 295 295 294 293 293 292 291 291 290 290 291 292 292 292 292 292 291 289 289 287 285 284 283 283
289 285 285 285 283 286 286 290 290 288 289 284 284 285 287 289 291 292 290 287 290 290 291 291 292 292 292 291 291 291 291 289 289 290 290 289 292 295 298 300 301 299 299 300 300 300 300 300 299 298 298 298 298 298 298 297 296 294 293 291 291 291 291 290 289 290 290 290 290 291 290 291 292 292 292 292 292 291 290 290 290 289 290 289 288 288 289 290 289 288 288 286 283 285 281 281 282
284 287 285 285 284 284 288 288 287 288 288 287 286 288 291 291 291 292 291 291 292 292 293 294 294 293 292 292 291 291 289 290 290 291 290 291 293 297 299 300 300 299 299 299 300 299 299 299 299 298 299 298 298 296 295 294 294 293 291 290 289 288 289 289 289 289 289 288 288 289 289 290 290 289 289 290 289 289 289 288 287 287 287 287 287 285 285 285 286 287 287 287 284 281 282 283 281
286 283 285 286 283 287 285 286 288 289 289 285 283 287 289 290 291 292 293 293 293 293 293 293 293 293 293 293 292 292 290 290 290 291 291 291 292 296 300 300 300 299 298 298 298 298 298 298 299 298 297 296 295 294 294 292 291 291 290 290 290 289 287 289 288 288 288 287 287 288 288 288 288 288 287 287 287 286 286 285 283 282 283 283 285 284 283 283 283 284 285 286 286 283 279 281 282
284 287 285 284 285 286 288 287 286 286 289 285 287 289 291 292 293 293 295 292 291 294 292 291 292 292 293 291 292 293 292 291 290 290 291 291 292 296 299 300 300 298 298 298 298 298 298 298 298 297 295 295 294 293 292 292 291 289 289 289 289 288 289 288 287 286 286 287 286 286 286 286 286 286 285 285 285 283 283 283 282 282 282 282 283 283 282 281 281 281 283 285 284 285 279 278 281
284 284 289 289 287 288 285 285 288 285 283 284 286 283 280 279 286 290 293 287 290 290 291 294 295 293 290 291 292 291 292 292 292 291 291 292 293 296 300 300 299 298 297 298 299 297 298 298 297 296 295 293 292 292 291 292 291 290 289 289 288 287 286 287 285 284 284 285 285 285 285 284 284 283 283 283 283 283 282 282 281 282 282 282 282 282 281 281 281 281 280 281 281 281 281 279 279
285 286 287 290 289 287 287 286 287 280 280 285 284 283 282 282 287 288 288 286 289 291 290 293 294 293 291 291 291 291 291 290 290 291 291 291 292 296 299 299 299 298 297 297 297 296 297 297 295 294 293 292 292 291 291 291 290 290 291 291 290 288 286 284 283 284 284 284 284 283 282 282 282 282 282 281 282 282 281 281 281 281 282 282 282 282 281 281 281 280 281 281 281 283 281 279 279
284 285 284 287 287 286 286 285 287 284 281 284 283 281 282 286 288 292 293 291 292 293 296 297 295 292 290 290 290 290 291 291 291 291 291 292 293 296 299 300 299 298 297 296 295 294 296 295 295 294 293 292 291 291 291 291 290 290 289 288 287 286 285 284 284 284 284 283 282 281 281 281 281 281 281 280 281 281 281 281 281 281 281 281 282 281 281 280 281 281 281 280 280 280 279 280 278
285 287 285 285 287 285 284 286 282 282 282 282 284 286 284 283 284 286 287 287 289 292 294 296 296 290 290 289 289 290 290 291 291 290 290 291 292 296 299 300 300 298 296 295 293 293 295 295 295 293 293 291 291 291 290 290 290 290 289 287 285 284 284 284 284 285 283 282 281 280 280 280 280 280 280 280 280 281 282 280 280 281 281 281 281 280 280 280 280 279 280 280 280 279 280 279 279
287 285 286 284 283 282 281 281 285 281 279 281 283 284 281 285 286 286 284 287 288 291 294 296 294 289 288 289 289 289 289 289 290 291 291 291 292 295 299 300 299 298 296 295 293 293 293 293 293 292 291 291 291 290 289 288 288 289 288 286 285 284 284 282 282 281 281 280 280 279 279 279 279 279 279 279 280 279 280 280 280 280 280 280 281 280 280 279 279 279 279 279 279 279 279 279 278
288 287 289 285 282 280 279 280 279 280 279 283 284 285 286 282 285 286 287 288 290 293 292 292 288 286 286 287 288 288 288 289 289 290 290 291 291 293 297 298 298 297 295 294 293 293 292 292 291 291 290 290 290 289 288 287 287 288 287 287 285 283 282 282 280 279 279 279 279 279 278 279 279 279 279 279 279 279 280 280 280 280 280 281 280 279 279 279 279 279 279 279 279 279 279 279 279
290 286 282 287 286 278 277 274 276 276 279 282 282 285 286 282 282 284 288 286 285 289 290 291 287 287 287 287 287 288 288 288 288 289 289 289 289 289 294 297 296 296 294 293 293 293 292 291 290 289 289 289 288 288 287 286 287 287 286 286 285 283 282 281 281 280 280 279 279 279 278 278 278 279 278 278 279 279 280 279 279 279 279 279 279 279 279 279 279 279 279 279 278 278 279 279 278
287 287 288 283 274 271 275 271 277 276 280 280 277 282 282 284 290 284 287 290 290 288 290 291 290 289 287 286 287 287 287 287 288 288 289 288 289 290 292 296 295 295 294 293 292 293 293 291 290 289 289 288 288 287 286 286 286 285 285 284 283 283 282 282 281 280 280 280 279 278 278 278 278 279 278 278 278 278 279 279 279 279 279 279 279 279 279 279 279 279 278 278 278 278 278 278 277
286 288 285 281 273 274 273 272 271 270 277 278 280 282 283 284 287 292 295 296 295 292 291 290 290 291 290 287 287 287 287 287 288 288 288 288 289 290 292 295 295 294 294 293 293 293 292 291 290 290 289 288 287 286 286 285 285 284 283 283 283 283 282 281 281 281 280 280 280 279 279 279 279 279 278 278 278 278 278 278 279 279 279 279 279 278 278 278 279 278 278 278 277 277 277 277 277
290 287 290 286 281 276 273 273 276 279 276 274 276 278 278 278 284 286 292 290 285 283 283 284 286 287 285 285 285 285 286 286 287 288 288 288 289 290 291 294 294 294 294 293 292 292 292 290 290 290 288 286 286 285 284 284 284 283 283 282 282 282 282 281 281 281 280 279 279 279 279 278 278 278 278 278 278 278 278 278 278 278 278 278 278 278 279 278 278 278 277 277 277 276 276 277 276
285 285 285 281 285 281 282 273 271 270 271 271 273 280 280 284 285 288 287 286 288 286 284 283 285 285 284 285 286 286 287 287 287 288 288 288 288 289 290 292 294 294 294 293 292 292 291 290 290 289 287 285 284 284 284 283 283 282 281 281 281 281 282 281 280 281 279 279 279 279 278 278 278 278 278 278 277 278 278 278 278 278 278 278 277 277 277 277 277 277 277 277 276 277 276 276 275
285 287 285 286 284 286 276 274 275 272 271 279 275 280 282 284 290 292 294 292 290 288 285 284 286 284 283 286 286 286 287 287 287 288 288 288 287 288 289 291 293 294 293 293 292 292 291 290 289 288 287 285 284 284 284 283 282 281 281 281 280 280 280 279 280 279 278 278 278 278 278 277 278 278 278 278 278 277 277 278 277 277 277 277 277 277 277 277 277 277 277 277 276 276 276 275 275
286 282 286 286 286 286 283 279 274 269 274 278 278 281 283 279 284 282 286 287 291 290 289 288 286 282 284 286 287 287 287 287 288 288 288 288 288 288 289 290 291 293 293 293 292 292 291 291 290 288 286 284 283 283 282 282 281 281 280 280 280 280 280 279 279 279 278 278 278 278 278 278 278 278 279 279 277 277 277 278 277 277 277 276 276 276 276 276 276 276 276 276 276 275 275 275 275
287 284 288 290 283 280 281 277 279 272 275 278 275 276 280 283 287 286 285 286 290 291 291 288 287 285 285 285 286 286 285 285 286 287 287 287 287 287 288 288 289 291 293 292 292 291 291 290 290 289 287 285 283 283 282 282 282 282 282 281 280 280 279 279 278 278 278 278 278 278 278 278 278 278 278 277 277 277 277 276 276 276 276 276 276 276 276 276 276 275 275 275 275 275 275 274 274
287 288 288 286 285 277 279 284 275 277 273 269 280 274 284 285 285 286 291 291 292 292 286 287 288 289 288 286 286 286 286 286 286 287 287 287 287 287 287 288 287 288 289 290 290 289 290 290 289 289 287 285 283 282 282 282 281 282 281 280 280 280 280 279 278 278 278 278 278 278 278 278 278 278 277 277 277 276 276 276 276 276 276 275 276 276 276 276 276 276 276 275 275 275 275 274 274
284 286 283 286 282 284 281 280 280 279 269 269 274 280 284 282 285 287 291 291 292 291 291 291 290 289 287 286 287 287 287 286 287 287 287 286 286 286 286 286 287 286 287 287 287 287 287 288 289 288 287 284 283 282 282 282 282 282 281 280 280 279 279 279 278 278 278 278 278 278 278 278 278 277 277 276 276 276 276 276 276 276 276 275 275 275 275 276 276 275 274 274 274 274 274 273 273
290 290 287 289 284 282 280 281 281 275 276 278 271 280 287 285 284 291 289 290 290 290 290 291 289 287 287 287 286 287 286 287 287 287 286 286 285 285 285 285 285 285 285 285 285 285 285 286 287 287 286 285 283 282 282 282 282 282 281 281 280 279 279 278 278 278 278 278 278 278 278 277 277 277 277 276 276 276 276 276 276 276 275 275 276 276 275 275 275 274 274 274 274 274 273 273 273
Wind_Speed
5 5 3 1 3 3 5 8 1 2 4 0 0 1 1 0 1 1 1 2 0 2 1 1 1 1 1 1 4 4 1 3 2 3 1 1 2 3 3 5 3 1 4 4 6 6 5 4 7 7 6 3 2 10 10 9 9 9 9 9 9 9 10 11 11 11 12 12 12 12 13 14 14 13 14 14 14 13 13 13 13 14 14 15 15 15 15 16 16 15 15 15 15 14 14 14 15
2 4 2 2 2 2 1 1 4 3 6 2 1 1 2 1 0 2 2 1 2 1 0 4 5 7 8 9 6 2 3 1 3 0 2 3 3 1 3 4 1 4 4 4 5 5 5 5 9 6 5 6 5 10 10 9 10 9 8 9 8 9 10 10 11 12 11 12 12 12 12 13 13 14 13 13 13 13 13 13 13 13 14 14 15 15 15 16 16 16 16 15 15 15 15 15 15
3 5 2 4 5 6 2 5 1 1 4 0 2 5 2 0 1 2 3 2 3 3 0 1 2 3 1 1 3 2 0 0 0 0 1 2 1 1 5 6 1 1 5 4 5 5 7 5 14 8 7 7 9 11 11 10 9 9 8 9 9 8 9 10 10 11 11 11 11 11 12 12 12 13 13 13 13 13 14 14 14 13 14 14 15 15 15 15 16 16 16 16 16 15 15 15 15
2 5 3 3 1 4 1 4 5 7 2 4 1 2 1 1 2 4 3 3 2 1 1 1 3 1 1 5 0 0 1 1 0 0 1 1 0 4 5 4 3 3 2 4 4 4 6 4 11 15 13 11 8 8 10 10 9 9 8 9 9 8 9 9 10 10 10 11 11 11 11 11 13 13 14 14 13 13 13 13 13 14 14 15 15 15 15 16 16 16 16 16 17 16 16 16 15
5 2 3 4 4 2 4 1 4 3 1 5 3 3 3 3 3 3 1 3 6 2 0 0 2 3 0 3 0 1 1 1 0 2 1 2 2 3 4 4 1 5 4 4 4 3 5 10 7 12 11 10 11 9 10 10 9 9 8 8 9 8 8 8 9 9 10 10 11 11 11 13 13 15 14 13 12 12 12 12 13 14 15 15 15 15 15 16 16 16 16 16 17 17 16 16 16
6 3 4 2 1 3 5 2 2 1 3 5 1 2 3 6 4 4 2 2 0 1 2 1 1 3 1 1 1 0 1 2 1 1 0 1 5 4 4 3 3 4 3 4 4 3 4 9 8 9 12 11 10 9 9 11 10 9 8 9 9 8 8 8 9 8 9 10 10 11 12 12 14 14 13 11 12 12 12 12 13 14 15 15 15 15 15 16 16 16 16 16 17 18 17 16 16
0 4 6 4 3 4 3 3 2 2 0 4 1 1 5 4 4 1 1 0 0 3 0 0 1 2 3 1 1 1 1 0 1 1 2 5 6 5 3 2 4 4 2 3 4 3 4 7 6 8 9 8 8 9 9 10 10 10 10 10 9 8 8 8 8 8 8 9 11 11 11 12 12 13 12 11 11 11 12 13 13 14 15 15 15 15 16 16 16 16 17 17 17 18 17 17 18
2 1 2 3 1 4 3 1 1 2 1 4 1 1 2 2 3 0 1 1 1 1 1 1 2 2 1 2 1 1 2 2 1 2 3 4 4 3 1 4 6 4 2 3 3 3 5 7 9 6 10 10 6 7 8 7 9 10 9 11 10 9 8 8 8 8 8 9 10 11 11 12 12 12 12 11 11 11 12 12 13 14 15 15 16 16 16 16 16 16 17 17 18 17 17 19 19
6 8 0 6 3 3 3 2 1 2 5 1 4 6 2 2 4 2 0 1 0 0 1 0 0 1 2 1 1 1 2 1 2 3 2 3 3 3 1 3 6 4 2 2 3 3 2 5 10 9 8 13 11 7 9 9 7 9 9 10 10 9 8 8 8 8 8 9 9 10 11 11 11 11 11 11 11 11 12 13 13 14 15 15 16 16 16 16 16 17 17 17 18 18 18 19 20
3 2 1 3 3 2 2 1 2 1 1 1 1 0 1 3 1 0 1 1 0 0 1 1 1 1 1 1 1 1 1 3 3 0 4 4 3 4 4 2 2 5 4 4 2 2 1 3 6 8 7 9 11 9 9 7 8 7 9 9 10 9 8 8 8 7 8 9 9 10 11 11 10 11 11 11 12 12 12 13 14 14 15 16 17 17 17 17 16 17 18 18 18 18 19 19 19
1 6 3 4 5 2 2 2 3 2 1 4 4 5 3 3 3 0 0 1 0 1 1 2 1 2 1 1 2 2 3 2 2 1 4 4 4 5 4 3 3 2 3 4 3 2 1 3 3 6 6 7 7 7 7 6 3 7 7 8 8 7 8 8 7 8 8 9 9 10 10 9 10 10 11 11 12 11 12 13 13 14 15 16 17 17 17 17 17 17 17 18 18 18 18 18 19
1 1 2 4 2 6 4 4 1 3 5 2 1 0 2 4 2 1 0 4 0 0 1 3 1 5 2 2 1 0 4 3 2 2 3 3 5 5 5 5 7 7 7 4 2 2 2 2 1 2 4 5 8 8 7 6 4 4 5 7 8 8 7 7 6 7 8 8 9 10 9 9 9 10 11 12 11 11 12 12 13 14 15 16 16 17 17 17 17 17 16 16 17 17 17 18 18
4 2 7 6 1 0 1 3 2 1 2 3 3 0 2 4 4 5 4 1 1 2 0 2 1 0 1 2 2 3 1 1 2 2 3 4 5 4 6 6 7 8 7 8 8 8 7 3 1 1 1 5 3 5 8 4 4 4 5 5 7 7 7 8 6 6 7 8 9 8 9 7 8 8 10 12 11 10 11 12 13 14 15 15 16 16 17 16 17 17 17 17 16 17 18 18 18
5 6 6 2 1 3 4 2 1 3 3 2 2 1 1 1 2 5 7 4 1 1 0 2 1 2 0 1 2 1 3 1 1 3 3 4 5 6 7 5 7 7 8 8 8 6 7 5 6 5 5 2 4 4 5 5 4 3 4 6 6 6 7 7 6 6 7 6 6 7 8 8 8 8 9 11 10 9 10 11 13 14 14 15 15 16 16 16 17 17 17 17 17 17 18 18 18
2 2 7 5 1 1 1 4 8 5 4 3 1 1 1 2 3 2 4 4 3 1 3 1 0 1 3 5 5 4 2 0 1 2 4 4 5 7 5 5 5 5 7 7 6 6 6 4 5 6 6 4 4 3 3 5 4 5 5 4 4 7 7 7 7 6 6 6 7 7 7 9 9 10 10 10 10 9 9 10 11 12 14 14 14 15 15 16 16 17 17 17 17 18 18 18 18
5 6 5 4 2 4 3 1 1 3 4 4 1 1 2 0 1 2 3 1 1 0 0 2 3 1 0 4 1 2 2 1 2 2 5 5 4 5 5 6 4 5 6 6 5 4 4 5 5 5 7 7 5 3 4 3 4 6 6 6 5 4 7 8 7 6 6 6 7 8 8 8 8 8 10 9 10 9 9 8 10 11 13 14 14 14 15 15 16 17 17 18 18 18 18 17 17
2 4 4 4 2 3 3 3 6 3 3 3 4 1 2 1 0 0 0 1 5 0 3 0 0 0 2 2 2 3 3 2 2 4 5 4 4 3 3 4 4 4 4 6 6 4 5 6 7 7 6 5 5 4 1 4 4 7 5 6 6 7 6 7 8 8 7 6 7 7 7 5 5 5 7 6 9 7 8 9 10 10 12 13 14 14 15 15 16 17 18 18 17 17 15 16 17
1 3 6 1 3 3 5 7 9 1 2 3 3 3 3 1 0 0 0 5 2 1 1 3 1 0 2 2 1 3 2 4 3 6 4 3 2 2 3 3 4 3 6 6 5 7 7 7 8 7 4 5 6 4 2 2 3 5 4 3 2 4 5 5 6 5 5 4 6 5 4 4 4 4 5 7 6 7 8 10 10 10 11 11 12 14 14 15 16 17 17 17 16 15 14 8 8
4 2 3 6 5 4 7 4 6 2 1 3 2 0 3 3 5 1 1 1 2 0 1 2 2 2 0 1 3 3 3 3 3 5 5 4 3 4 2 2 3 3 4 6 6 8 6 4 4 5 5 4 4 5 3 0 5 3 3 3 3 3 4 4 4 5 3 4 3 4 3 2 3 4 4 5 5 7 7 9 10 10 11 12 12 12 14 15 16 17 17 15 15 13 8 7 7
1 3 1 1 8 2 4 4 5 3 3 4 4 0 1 0 2 0 1 1 1 4 3 1 2 4 4 1 1 1 3 3 3 5 5 4 3 3 3 2 2 3 3 3 4 4 3 3 4 4 4 5 4 3 3 2 3 3 3 3 3 3 4 3 4 5 4 3 3 3 3 3 2 3 4 7 7 5 6 9 10 10 10 13 12 9 11 13 15 15 14 13 9 6 7 7 7
0 2 3 2 4 2 2 5 4 4 1 3 3 1 0 1 3 1 2 2 4 6 6 7 9 9 8 4 1 1 4 4 3 3 5 4 3 2 2 2 1 2 3 4 3 5 7 5 5 4 6 5 4 3 1 1 2 2 2 4 4 3 4 3 3 5 4 4 3 3 3 3 3 3 4 4 4 4 5 4 6 5 4 7 8 7 6 6 7 7 7 8 7 7 8 7 7
3 1 1 1 1 1 1 4 4 4 2 5 1 4 3 1 1 2 6 5 7 6 4 7 5 5 10 9 5 3 4 5 4 4 4 4 4 2 1 2 1 1 2 4 4 5 5 5 4 5 4 3 3 2 2 1 2 1 3 3 4 3 4 4 0 5 4 4 3 3 4 4 4 3 3 5 4 5 5 5 5 5 4 5 5 6 5 6 6 6 7 8 7 7 8 8 7
1 1 0 3 1 1 1 2 4 5 3 4 3 2 2 1 1 1 5 8 4 2 3 5 4 4 5 4 6 5 5 5 4 4 4 4 3 2 1 1 2 3 3 2 3 3 4 4 4 4 4 4 4 2 3 4 4 4 3 3 4 4 5 4 3 2 4 4 5 3 5 4 3 3 4 4 5 4 4 5 6 5 4 5 5 6 6 5 6 6 7 7 7 9 9 8 9
5 2 0 0 2 1 1 0 4 1 9 2 3 1 1 2 4 1 3 6 3 3 2 1 2 4 6 8 4 6 5 5 4 2 1 3 3 2 1 2 2 1 2 3 3 3 3 5 5 5 3 3 1 1 4 4 4 5 4 5 3 6 3 5 4 2 4 4 2 3 2 2 4 3 4 4 4 4 5 5 6 6 5 5 5 6 6 5 6 5 6 7 9 9 10 9 9
2 1 1 1 1 2 2 1 2 0 0 1 2 1 1 4 2 1 5 7 0 2 3 4 4 5 4 6 5 4 4 3 3 2 2 1 0 0 0 0 1 1 2 3 3 3 3 4 4 4 3 1 2 4 4 4 4 5 4 5 4 4 6 4 3 4 4 4 4 4 3 4 2 2 3 3 3 5 5 5 6 6 5 5 6 6 6 7 6 5 6 8 8 8 9 9 9
0 0 1 1 1 4 1 1 0 1 1 1 1 4 3 2 2 4 10 2 1 2 4 4 5 5 4 5 4 5 5 4 3 3 3 0 1 3 1 2 2 2 2 2 2 3 3 4 4 3 3 2 2 5 5 4 4 6 2 6 5 5 5 4 3 5 4 4 4 5 6 5 5 4 4 5 6 6 5 6 7 6 6 5 6 8 6 7 6 6 7 8 8 8 9 9 9
2 1 1 1 1 3 2 1 1 0 1 1 2 2 1 3 2 8 1 3 3 4 4 1 5 5 4 3 3 3 5 5 5 3 2 1 1 3 2 2 1 1 2 2 2 3 3 4 4 4 4 4 3 4 7 3 5 5 4 5 4 5 6 4 4 4 5 5 5 6 6 6 5 5 5 7 7 6 6 6 6 6 7 6 6 7 5 6 6 6 7 8 7 9 9 8 8
3 1 1 1 7 1 2 2 2 0 2 4 4 3 1 2 2 10 3 3 3 6 4 3 3 4 4 3 3 2 3 3 2 3 5 4 5 3 3 2 1 1 1 2 2 3 3 4 4 4 4 4 5 5 6 5 5 7 5 4 4 6 7 4 5 4 5 4 5 6 5 5 6 5 6 6 7 6 6 7 6 7 7 6 5 6 7 6 7 8 9 9 8 9 9 8 8
0 0 1 4 6 2 0 2 1 1 2 4 4 1 4 1 7 7 2 3 3 4 5 4 4 4 3 3 3 3 4 3 2 3 4 3 3 2 3 1 1 1 0 2 2 2 4 4 4 4 4 5 5 5 5 6 5 6 6 4 5 6 6 4 5 4 4 4 5 5 6 7 5 5 6 7 7 7 7 7 7 7 6 6 6 8 9 8 7 7 9 8 9 9 10 9 8
0 6 1 4 6 5 3 0 2 3 1 3 2 5 7 8 14 3 1 6 3 3 5 5 4 4 4 3 3 3 2 2 3 4 3 3 3 2 2 2 1 1 1 1 2 3 2 2 2 3 5 5 5 5 5 7 5 5 4 5 6 5 6 5 5 5 5 5 4 5 7 7 7 4 6 7 6 7 7 7 7 6 6 5 6 6 8 6 8 8 7 8 8 9 9 9 9
1 1 3 1 2 4 2 0 0 3 1 1 1 4 8 7 8 4 3 5 9 9 7 6 5 4 4 4 4 4 4 3 4 4 3 3 3 2 2 3 1 1 1 1 2 2 3 3 3 3 4 6 5 5 6 6 4 4 5 7 6 5 6 5 5 4 5 5 4 5 7 7 7 5 5 8 7 7 7 7 7 6 6 6 7 5 8 6 7 8 7 9 8 8 9 8 10
2 1 3 3 3 6 7 2 5 4 1 0 4 4 10 11 9 1 3 4 5 7 6 6 6 5 5 4 4 4 4 3 4 3 3 3 3 3 2 2 1 2 2 2 2 2 4 4 4 4 5 6 4 6 6 6 6 3 6 7 5 6 7 6 4 5 5 5 5 6 7 7 7 6 5 7 9 6 6 6 5 6 6 6 7 6 7 8 7 8 5 8 11 9 10 9 8
5 2 4 1 1 4 8 1 1 2 1 1 6 7 3 5 2 4 2 5 5 6 6 7 7 7 6 5 5 4 4 4 3 4 4 3 3 3 4 2 2 3 3 3 3 3 4 4 4 4 5 6 5 7 6 6 6 6 6 6 6 7 7 5 4 4 5 6 5 5 6 7 7 7 6 7 8 7 7 7 6 6 6 7 7 6 7 6 8 8 6 5 9 10 11 10 9
3 2 3 3 2 1 2 7 0 1 1 4 2 3 8 5 4 2 0 4 4 7 10 8 8 6 6 4 5 6 6 5 7 5 5 4 4 3 3 2 2 3 4 3 3 4 5 4 4 5 5 5 5 6 6 5 6 7 6 5 7 7 7 4 4 5 5 5 5 6 6 7 7 6 6 6 8 7 6 7 6 6 6 6 7 7 6 5 6 8 9 6 6 10 9 10 9
2 2 1 5 1 2 5 1 1 1 1 3 1 5 12 13 11 5 5 5 6 10 11 8 6 6 6 7 7 7 7 8 8 5 5 5 4 4 3 3 3 3 4 4 5 5 4 5 5 6 5 5 5 6 7 6 6 7 7 6 7 7 5 5 5 5 4 5 6 6 6 6 6 6 6 6 8 7 7 6 6 6 5 6 8 8 7 7 7 7 11 9 7 7 8 8 9
2 6 5 3 2 3 3 6 3 3 3 4 5 9 11 13 13 10 5 6 9 13 6 6 6 6 7 9 9 9 9 10 5 5 4 4 4 4 4 4 4 3 4 5 5 5 5 5 5 5 5 5 5 4 4 4 4 5 7 6 8 5 4 6 6 4 3 5 6 7 6 6 5 5 5 6 6 6 7 6 6 5 5 6 8 9 8 8 11 12 11 13 12 9 7 7 7
5 3 3 4 4 5 4 4 4 1 1 8 10 9 8 10 11 12 5 4 6 9 9 10 9 8 9 10 11 11 10 10 5 6 6 6 6 4 4 4 5 4 4 6 6 5 5 6 7 7 6 6 5 5 3 3 4 6 6 4 5 4 5 5 5 3 5 5 6 7 7 5 5 6 5 5 6 7 7 6 6 5 4 6 8 8 8 9 8 10 10 8 12 11 5 3 3
1 1 1 5 3 6 5 0 1 2 3 4 2 5 10 13 12 12 2 4 9 12 12 13 14 12 11 12 12 11 8 2 5 5 5 4 4 5 5 4 6 7 5 6 7 6 7 6 6 7 6 6 5 5 5 3 3 2 6 5 5 4 3 3 4 4 4 6 7 7 6 6 6 6 5 5 6 6 7 6 6 6 6 6 7 7 7 7 8 9 10 8 4 6 4 1 2
2 3 2 2 7 5 10 6 3 2 1 9 5 9 13 10 10 10 8 11 9 10 12 15 14 13 12 11 11 8 7 9 7 7 6 7 7 7 7 6 6 6 7 7 6 7 6 6 6 7 6 5 5 5 5 4 6 5 5 5 4 5 5 4 5 3 4 7 7 7 7 6 6 5 5 5 5 6 6 7 6 6 6 7 9 8 7 7 6 7 7 12 8 4 4 3 3
3 1 1 8 3 1 7 1 2 1 2 3 2 8 12 9 9 13 14 12 11 10 12 13 11 13 14 15 13 13 14 11 12 13 12 8 7 7 8 8 7 5 6 6 6 7 6 5 6 6 5 5 4 6 6 6 8 8 9 7 7 5 5 5 6 6 6 7 8 7 5 4 7 6 5 5 6 6 6 7 6 6 6 4 8 10 7 6 5 5 6 7 11 7 2 4 4
3 6 5 3 3 6 7 5 3 2 1 2 5 9 12 9 13 10 11 6 5 11 8 9 13 13 10 5 7 13 15 15 13 11 9 10 10 11 10 8 7 7 7 7 7 7 6 7 7 6 6 6 5 6 8 8 10 9 7 9 8 7 6 5 6 6 5 5 5 6 4 5 5 6 5 5 5 6 5 5 6 6 6 5 5 8 7 6 4 4 5 7 4 9 5 2 5
3 6 10 9 6 7 5 3 4 7 5 3 3 7 5 4 6 10 10 4 5 4 6 15 18 11 8 11 13 8 9 11 15 17 16 13 11 8 9 10 9 7 8 7 7 7 6 7 7 7 6 6 7 7 8 8 8 11 10 9 6 4 5 4 4 6 5 5 4 2 5 5 4 5 5 5 5 5 6 5 5 7 7 6 6 7 6 6 5 5 2 4 6 2 8 6 4
1 6 9 11 8 4 1 1 2 3 4 2 2 3 12 1 4 6 6 3 9 8 6 14 12 10 8 12 9 10 11 9 6 6 7 10 10 11 11 11 11 9 7 6 5 6 6 7 7 7 7 7 7 8 8 6 7 5 6 8 9 10 9 2 2 3 4 3 4 5 5 4 4 5 4 4 5 5 6 5 6 7 7 6 5 7 7 6 5 4 3 6 5 6 6 7 8
4 1 3 4 3 5 5 3 6 6 1 3 1 3 6 18 7 10 11 9 8 10 14 16 14 9 8 8 7 8 10 12 13 13 13 12 12 14 15 13 10 9 7 7 6 5 7 7 7 7 6 7 7 8 7 5 6 6 6 6 5 5 5 8 6 4 4 4 6 5 4 4 4 4 5 4 4 5 6 6 6 6 7 5 6 7 7 5 6 5 5 5 5 5 4 10 6
3 0 4 5 6 4 3 3 3 0 3 9 0 0 2 10 3 3 3 6 7 12 17 17 14 5 7 9 9 10 11 13 13 13 14 15 15 14 12 12 9 8 8 8 7 7 7 7 7 7 7 7 7 7 7 5 4 4 6 8 8 5 6 6 5 4 5 5 7 4 5 4 4 4 4 4 4 5 4 6 6 7 8 6 6 7 6 5 6 6 6 7 7 6 5 4 7
1 5 8 7 7 6 3 4 2 1 2 8 6 4 4 19 6 4 3 2 7 12 16 16 9 4 6 9 8 8 7 7 9 11 12 13 11 10 9 9 9 8 7 7 7 6 7 7 8 8 8 7 7 7 5 4 3 5 7 6 11 8 6 6 4 6 5 4 6 5 4 5 4 5 4 4 5 4 5 5 7 7 7 6 6 7 7 7 7 7 6 6 6 8 4 6 7
7 4 7 5 8 4 3 6 2 3 6 8 11 9 6 11 3 9 9 8 11 12 7 8 5 4 4 5 6 7 7 7 8 8 8 8 6 7 9 11 10 7 7 8 7 8 7 8 9 9 8 7 7 7 6 5 5 5 6 8 12 13 9 9 8 5 5 5 7 5 4 4 3 5 5 4 4 4 5 5 6 6 6 6 7 7 7 7 6 7 7 8 8 8 6 8 7
6 2 3 4 2 6 3 4 4 1 9 1 3 10 8 12 4 4 6 4 3 6 8 9 5 4 4 4 5 5 6 6 6 7 8 8 7 6 7 10 10 9 8 9 8 8 8 8 8 9 7 7 7 6 5 5 6 6 5 7 10 13 14 10 11 11 8 8 7 7 5 5 4 4 3 4 4 4 5 5 5 6 6 7 8 6 7 7 7 7 7 7 7 7 6 7 6
3 6 7 6 4 5 3 3 3 6 9 0 2 1 4 20 14 2 8 9 8 9 9 8 7 6 5 4 5 5 5 6 8 8 8 9 11 12 12 12 11 10 11 10 9 9 9 8 9 10 9 8 8 8 7 7 7 7 7 7 6 9 10 12 11 11 9 9 8 7 7 7 5 6 4 5 4 4 4 7 5 6 6 6 6 7 6 7 7 8 8 8 7 6 6 6 7
4 8 7 6 1 2 5 3 2 7 7 3 0 1 10 4 7 9 18 19 13 8 9 8 7 8 6 5 4 6 7 8 9 9 9 10 11 11 12 12 12 10 11 11 10 10 9 8 9 10 10 9 8 8 8 8 7 7 7 7 8 9 9 9 9 10 9 8 8 8 8 8 7 7 6 5 5 4 3 4 5 6 6 6 6 6 6 5 6 8 8 9 8 6 6 7 8
11 3 11 10 9 7 4 6 7 8 5 2 5 2 8 3 5 3 11 6 5 5 4 4 6 6 4 2 4 5 6 7 9 10 11 12 11 12 12 12 11 11 11 10 9 9 9 9 9 10 9 8 8 9 7 8 7 7 6 6 7 7 9 8 7 7 9 9 7 7 6 5 6 6 6 5 3 4 4 4 5 7 6 6 6 6 6 6 6 7 7 8 7 6 7 8 6
2 1 5 3 8 6 7 4 3 1 2 4 2 8 4 6 3 5 5 6 9 6 6 4 8 5 4 3 6 9 9 9 9 10 10 9 8 9 9 9 10 10 11 9 10 10 10 9 10 10 11 10 9 8 7 8 8 6 6 7 7 6 5 6 6 5 4 6 7 7 7 5 5 6 4 5 3 4 5 6 6 6 5 6 5 5 6 6 6 8 7 7 8 4 8 8 6
4 6 7 5 2 5 2 2 1 1 2 13 4 10 7 8 13 13 18 13 13 6 5 6 9 5 3 6 7 9 9 10 10 12 12 10 8 9 10 10 10 10 11 11 11 11 11 10 10 10 9 8 9 9 9 8 7 7 7 7 7 6 7 8 8 7 6 5 5 5 5 5 5 5 5 3 5 4 4 6 7 6 6 5 5 4 5 5 5 6 7 7 8 5 7 7 5
9 4 7 2 2 3 3 6 1 1 5 8 6 12 10 3 17 3 2 5 12 10 11 11 7 4 6 9 8 9 10 11 10 9 9 10 11 12 11 9 10 12 12 12 12 10 10 10 11 11 10 11 8 8 8 8 9 8 7 7 7 7 8 7 6 7 7 7 6 5 5 6 6 5 5 5 5 5 5 5 7 6 5 5 5 4 4 5 6 6 6 6 6 6 7 5 5
5 5 5 8 5 3 2 4 7 1 6 8 3 2 10 10 15 0 1 5 9 14 13 7 10 9 12 8 8 6 5 5 8 10 10 11 11 11 11 12 10 10 11 11 10 10 9 9 10 12 13 12 12 9 7 6 7 7 8 9 9 7 6 6 6 6 6 7 8 7 7 6 6 5 6 6 6 6 6 5 6 6 5 5 4 4 4 5 5 7 6 7 5 6 7 6 4
1 3 4 1 2 1 6 8 2 5 6 2 10 7 17 5 7 7 15 15 14 10 4 7 11 13 11 8 7 9 9 10 10 10 11 10 10 11 12 12 12 12 11 10 9 8 10 10 10 10 9 9 9 9 10 10 8 8 7 6 7 8 8 8 7 8 7 7 7 8 7 7 8 6 5 5 6 6 6 7 5 6 6 5 5 4 5 5 5 6 7 7 5 6 7 7 5
2 3 5 1 0 2 4 1 3 3 3 3 5 13 14 2 6 7 10 8 10 8 11 9 10 6 4 6 8 9 10 10 10 10 10 9 9 9 8 7 8 6 6 7 8 10 9 8 10 11 13 11 10 10 10 10 9 9 10 10 9 8 8 8 8 7 7 7 7 7 7 7 6 6 7 7 7 7 6 6 7 6 6 5 6 6 5 5 6 6 5 6 6 6 7 5 6
16 17 15 17 11 5 4 8 2 2 2 7 4 16 16 4 3 10 7 8 6 7 8 10 5 3 5 6 8 8 8 8 7 7 7 8 8 8 7 6 6 7 9 9 8 7 8 9 10 10 9 11 12 10 10 9 8 9 10 10 9 8 9 8 9 8 8 7 7 8 7 7 7 6 7 7 7 6 6 6 6 6 5 5 5 6 6 5 6 7 6 5 6 7 6 5 5
Wind_Direction
342 334 318 319 61 84 57 2 102 337 59 329 3 19 194 3 198 21 233 345 51 293 231 24 135 86 195 186 148 146 193 107 212 127 191 236 250 278 271 282 286 238 140 151 150 150 147 167 134 126 128 113 147 132 123 122 124 123 120 116 114 114 112 109 108 106 104 103 101 102 104 102 99 95 89 83 82 77 70 65 60 55 51 48 46 46 47 48 49 48 48 48 47 47 47 51 57
330 320 19 7 52 52 27 122 96 356 37 58 225 92 244 272 60 213 192 196 201 117 193 103 89 82 60 86 112 129 33 25 172 133 275 234 308 299 355 334 269 175 158 143 134 144 149 165 143 131 151 150 181 141 133 131 131 131 128 118 114 116 110 109 108 107 104 103 102 100 100 100 100 96 92 88 83 77 70 66 61 57 54 51 49 47 47 49 50 50 50 50 50 51 52 55 58
356 6 358 22 36 70 101 33 290 44 88 83 277 208 325 113 211 236 219 205 212 179 121 292 105 59 27 83 25 66 67 4 17 204 226 326 112 276 341 321 257 238 156 143 131 147 144 185 131 152 173 155 197 147 138 134 135 133 128 121 116 117 113 107 104 106 105 104 102 100 102 104 103 100 94 89 80 73 69 65 62 59 56 52 51 51 49 50 50 51 52 53 54 55 56 57 59
88 26 111 62 42 31 56 28 85 123 116 201 306 277 182 184 243 204 227 230 226 4 296 3 55 268 92 50 121 51 19 48 168 177 19 9 193 275 308 309 297 144 149 144 138 146 107 155 159 156 190 161 192 146 140 141 139 134 129 122 119 116 116 111 107 108 108 107 106 105 106 102 100 94 87 79 74 70 67 63 60 56 55 53 53 53 53 53 52 52 53 56 58 56 57 59 65
63 3 69 95 107 11 101 110 136 103 93 205 160 272 253 208 205 225 274 247 268 166 242 186 80 343 112 119 338 119 218 277 320 178 255 265 274 272 288 301 162 153 162 137 139 143 138 177 160 179 154 171 156 155 148 144 142 137 126 121 120 119 117 115 113 112 112 112 109 110 106 103 96 90 83 79 76 71 66 64 62 58 55 53 54 55 55 57 57 57 57 59 58 57 57 62 69
59 44 2 74 62 158 68 68 49 129 223 152 114 234 221 212 187 209 258 307 286 172 181 70 166 192 21 318 160 90 213 55 268 302 169 253 315 309 286 279 132 160 145 129 148 134 169 168 162 172 160 159 154 163 154 147 146 133 126 125 122 125 120 115 115 117 116 115 111 107 106 104 102 98 93 88 81 74 69 65 62 60 57 55 53 56 58 59 62 63 62 61 59 59 61 66 73
300 46 1 42 30 44 173 123 170 174 197 158 212 243 206 208 215 124 302 41 220 85 218 209 93 96 61 296 359 219 211 237 64 240 172 287 305 303 296 192 131 154 138 129 144 148 153 163 157 156 137 172 149 158 175 148 144 138 136 132 128 127 123 121 121 116 114 113 112 112 111 106 103 101 97 91 84 77 70 65 63 60 58 56 55 56 58 61 64 66 66 64 62 62 66 70 72
55 104 329 100 332 47 43 181 151 168 350 180 253 241 243 210 164 109 239 118 255 98 15 137 14 108 255 75 195 270 339 179 237 279 281 296 286 311 1 161 140 145 159 138 147 138 162 160 154 181 165 144 180 179 158 138 148 143 145 138 133 131 134 128 115 113 111 114 118 118 114 110 108 103 102 96 89 80 74 68 66 63 59 57 57 57 58 62 65 67 69 67 65 66 68 71 70
5 88 307 68 53 30 57 68 262 235 283 297 290 215 266 187 153 124 313 253 77 331 117 233 296 60 223 51 203 277 292 291 285 262 290 302 351 347 89 136 142 133 143 118 123 135 142 167 163 188 172 149 180 173 152 154 160 151 147 139 138 139 135 128 117 119 117 119 121 120 118 115 113 109 103 97 91 83 75 70 67 65 62 60 59 58 59 63 66 67 67 67 67 68 68 68 65
48 52 233 108 136 38 25 304 87 174 240 243 240 250 156 164 147 48 179 70 174 68 291 328 149 92 137 156 316 348 118 334 297 358 4 351 354 27 37 61 130 143 140 142 129 143 154 163 179 172 168 165 158 191 152 146 153 164 150 146 141 141 137 129 126 123 125 125 125 126 124 122 120 115 106 100 91 84 78 72 69 66 64 62 60 59 63 65 67 67 67 67 67 68 70 69 65
7 20 135 75 33 99 163 221 271 315 277 318 300 239 225 141 127 142 87 171 318 144 257 239 35 147 92 246 207 250 316 329 78 14 324 337 11 37 26 31 66 64 129 134 146 141 147 177 173 177 171 173 159 159 146 133 159 168 152 147 140 135 136 134 132 129 133 134 130 130 130 128 123 116 109 98 93 85 80 77 73 70 68 65 63 62 65 65 66 67 67 67 67 68 68 68 68
27 28 12 99 149 154 222 158 245 275 306 343 204 314 193 131 101 110 170 138 216 219 147 120 250 145 73 335 297 286 324 35 3 306 327 347 49 41 42 40 47 38 40 26 100 125 149 119 166 154 165 160 159 155 138 157 182 150 146 150 141 132 134 136 130 131 136 139 135 135 135 130 126 115 108 101 92 88 82 80 78 76 73 69 66 66 66 67 66 66 67 67 68 69 71 70 68
111 90 85 81 176 115 182 111 210 320 347 274 178 30 115 111 184 192 182 140 34 122 313 211 219 90 205 192 249 319 110 356 337 356 21 41 48 55 56 48 51 35 35 36 38 29 18 21 88 112 132 160 106 138 147 173 134 128 149 146 144 136 135 135 132 136 138 141 143 139 133 127 110 115 112 105 99 92 89 84 83 81 78 73 70 68 68 68 68 68 67 67 69 71 71 70 69
116 175 122 141 48 121 132 176 7 155 257 243 269 277 210 140 245 177 137 123 224 158 286 296 137 140 122 2 304 279 242 305 339 63 46 44 58 63 63 55 56 48 48 42 39 16 25 16 31 28 2 189 141 138 144 179 135 118 112 129 140 137 131 132 132 134 142 140 132 126 121 118 110 109 114 107 103 97 94 92 88 87 84 78 74 70 69 70 71 70 68 67 69 71 72 71 70
111 147 82 113 67 98 234 127 200 159 231 191 193 138 121 286 106 128 145 139 248 206 298 9 186 106 240 152 278 221 206 350 112 65 75 58 58 67 63 62 62 54 56 48 46 25 16 16 25 29 19 336 148 152 143 190 154 134 103 100 140 147 137 133 126 132 138 132 122 114 110 105 103 106 107 110 110 106 94 89 92 95 92 86 80 74 71 72 73 73 72 72 70 70 71 70 69
138 89 82 97 170 139 227 126 24 103 255 190 316 251 89 351 196 125 247 152 175 4 42 207 9 192 138 173 239 253 266 277 156 97 80 60 51 61 60 51 31 58 56 41 34 25 32 34 33 30 17 11 321 134 148 166 149 132 109 81 75 104 132 132 126 126 125 115 111 110 108 110 115 118 123 118 120 112 100 99 97 98 96 93 86 80 77 76 75 75 76 73 68 64 61 60 62
60 81 61 49 158 167 212 147 145 192 239 259 284 164 142 207 227 222 155 68 122 210 16 175 238 4 203 205 264 282 288 204 117 90 78 49 39 37 41 37 12 41 37 34 19 3 26 27 23 27 14 351 316 43 122 175 168 144 132 112 107 119 129 131 116 110 104 102 110 116 117 118 125 130 129 125 119 114 108 104 103 100 99 95 91 86 85 82 77 76 77 74 70 65 57 52 49
56 67 114 96 196 150 201 174 186 199 123 214 195 200 116 185 348 208 284 28 62 342 64 310 323 324 222 263 295 262 259 147 131 107 91 81 42 58 56 2 16 12 347 357 19 11 9 16 15 10 348 331 349 14 352 143 118 150 138 118 121 123 129 123 118 117 121 105 126 129 124 125 129 136 131 131 126 126 120 114 113 109 103 93 91 91 89 84 79 77 75 72 68 64 60 55 46
88 128 86 195 173 229 157 196 189 119 276 181 188 210 150 204 145 232 104 286 15 82 302 20 330 307 341 9 349 67 121 121 116 118 126 128 119 130 106 335 21 3 8 358 351 2 8 352 4 357 323 327 344 12 339 298 146 135 149 134 117 137 126 125 111 112 96 103 137 129 109 108 129 135 136 136 137 136 123 115 112 112 109 97 92 93 92 86 82 78 75 71 67 62 59 58 55
181 113 130 258 204 236 205 168 193 207 138 137 152 178 159 251 147 40 209 183 39 223 221 311 272 241 229 254 18 61 113 102 109 127 122 112 99 120 112 68 26 14 336 355 327 330 348 355 343 336 310 333 348 360 334 307 125 140 136 133 112 114 120 122 132 121 111 131 138 131 124 106 101 116 122 126 120 116 110 110 108 104 97 92 87 77 69 75 79 74 72 69 65 63 64 60 62
206 68 155 204 182 112 220 180 222 200 163 140 125 138 74 260 211 148 172 106 256 262 229 182 205 217 201 206 206 165 134 126 104 111 121 107 78 65 106 120 114 319 312 316 347 342 344 345 340 339 333 323 348 324 270 301 50 131 167 137 126 130 127 126 148 132 135 143 148 129 126 126 125 120 136 140 139 132 133 131 117 103 88 95 94 89 84 77 77 80 74 69 66 67 66 59 64
90 58 187 168 156 31 194 192 170 142 142 104 109 128 220 90 74 138 150 189 236 209 238 214 220 196 173 181 192 155 154 149 144 136 144 141 139 115 26 353 347 276 317 16 345 334 335 326 317 319 316 298 273 285 315 35 41 64 195 148 132 132 118 113 101 135 137 148 150 152 141 153 148 150 155 154 155 159 155 137 117 99 84 92 93 90 79 80 78 82 82 79 74 72 72 70 65
65 334 326 199 217 152 349 143 194 123 127 136 138 222 76 130 248 187 173 211 229 231 261 245 237 212 165 119 140 146 158 162 165 159 147 133 112 93 82 80 77 12 358 330 320 319 315 325 328 317 319 324 323 337 11 25 34 35 34 66 122 111 112 105 90 52 115 132 143 166 161 162 168 168 170 169 164 159 134 129 117 112 106 96 89 93 85 78 85 84 85 85 82 77 73 72 69
105 160 332 223 190 268 65 44 128 122 125 198 205 62 182 111 244 118 218 247 244 294 319 269 183 122 128 136 165 160 163 162 161 146 163 159 152 157 141 68 37 49 16 333 339 324 329 348 339 324 307 284 202 92 75 66 60 65 64 71 52 84 69 113 100 95 89 46 81 135 137 134 173 177 179 170 158 143 138 124 109 104 96 90 88 91 93 81 79 80 88 83 83 80 80 74 71
78 64 211 259 115 258 310 106 105 109 168 356 133 156 246 174 195 24 253 247 202 46 69 82 98 105 107 130 143 143 131 117 122 108 79 65 133 340 331 4 50 30 20 337 326 341 344 338 322 311 307 243 141 105 87 89 72 70 67 80 60 63 82 23 94 97 63 83 52 56 86 97 60 78 92 61 70 76 80 90 99 98 92 93 102 88 90 95 83 80 78 80 80 86 85 80 77
112 200 136 336 20 323 318 30 55 49 332 58 85 269 280 250 260 249 240 245 160 111 79 88 107 113 131 147 155 155 154 154 142 133 147 44 64 97 51 68 13 18 354 321 340 339 334 319 319 335 348 351 112 125 95 87 79 80 63 87 68 61 63 61 10 76 81 73 61 64 68 81 96 106 94 81 81 60 64 85 93 91 93 91 101 98 95 97 102 90 85 84 84 84 83 82 84
131 131 110 108 316 348 30 191 32 282 206 181 197 275 279 351 61 275 344 197 136 97 99 75 126 147 150 153 158 164 156 169 170 154 100 86 73 126 137 77 305 16 348 327 357 336 321 328 353 4 15 16 31 84 100 82 100 86 63 79 83 75 62 48 59 67 76 77 79 72 73 84 91 88 97 105 101 104 94 79 80 89 83 76 91 96 87 92 90 86 87 90 92 88 81 83 87
42 132 86 27 337 293 258 348 287 326 271 170 177 248 291 317 97 236 227 180 176 140 149 144 145 164 175 174 179 179 171 190 165 151 161 157 177 159 131 149 153 313 13 331 348 331 346 358 358 19 23 26 53 68 93 90 78 89 62 61 88 85 78 54 62 63 78 81 85 94 84 82 93 93 99 97 99 93 91 86 75 78 78 71 75 94 92 84 90 94 92 93 95 92 90 83 80
277 138 292 302 357 354 332 212 311 169 241 153 165 317 281 183 230 239 258 139 159 154 171 190 189 200 194 195 187 186 195 191 171 178 197 197 186 167 140 170 110 205 212 349 358 5 10 1 19 17 31 32 43 64 83 88 69 88 88 67 68 75 80 76 74 55 68 72 78 84 93 90 64 91 87 87 92 91 91 90 83 78 79 81 79 88 97 99 95 97 96 100 98 95 93 87 83
212 35 91 340 359 329 313 296 33 142 257 131 160 279 259 246 242 256 187 151 124 140 200 211 216 207 210 199 198 212 216 176 198 214 207 209 176 148 149 197 112 168 307 24 33 24 12 22 28 29 32 46 50 68 63 81 68 77 81 83 57 70 76 72 77 67 55 55 61 76 83 73 80 61 93 88 87 93 87 85 90 83 82 74 74 81 88 88 93 89 93 96 89 94 95 94 91
121 267 64 93 11 274 290 90 223 148 203 160 80 221 280 275 273 277 181 172 165 195 212 215 219 223 216 215 208 210 228 215 212 221 222 210 194 189 168 194 142 132 113 92 71 52 55 39 24 46 54 66 60 66 66 68 67 73 86 72 60 60 64 65 61 67 69 63 59 66 74 78 76 79 84 102 93 95 93 89 80 87 96 91 95 96 105 96 103 104 112 101 96 93 93 90 90
17 41 292 330 158 279 295 227 170 167 353 72 121 277 250 266 270 292 196 181 189 212 213 220 221 218 219 219 219 222 229 236 252 241 225 216 209 170 199 186 142 140 144 125 115 92 73 54 54 58 62 71 57 72 64 69 73 58 78 78 76 65 63 49 40 59 69 69 67 70 77 83 84 83 87 100 98 88 91 91 91 96 95 96 99 97 98 104 105 100 92 114 111 103 98 90 89
354 122 268 254 84 262 338 355 237 350 97 350 177 227 329 302 281 306 218 187 205 224 236 228 225 224 219 217 219 225 237 252 258 234 227 216 213 184 201 173 170 159 141 154 135 109 93 86 67 68 70 86 77 79 79 75 75 72 63 74 73 70 69 53 45 61 75 77 71 76 79 82 80 81 89 92 100 104 102 102 110 111 112 106 103 99 97 110 114 104 83 80 108 113 102 101 88
288 29 214 205 193 256 254 304 277 266 126 209 261 232 236 242 275 344 190 189 198 235 242 234 226 221 218 215 218 219 219 217 219 209 219 211 205 197 199 164 164 151 153 146 142 130 122 109 101 92 82 73 95 94 92 94 84 77 70 67 69 69 69 69 51 54 63 82 82 74 73 82 81 83 86 95 98 100 104 110 113 117 119 112 106 100 100 98 91 105 98 66 89 106 104 103 99
215 195 322 294 261 206 250 341 262 116 2 209 284 248 266 269 274 234 214 182 198 233 232 236 229 222 218 218 219 220 217 218 219 206 203 202 209 203 188 170 160 155 153 141 138 130 120 117 114 110 104 94 94 99 97 89 93 82 74 74 71 66 63 56 55 60 55 68 78 80 77 83 84 85 92 99 109 111 108 104 104 107 110 113 111 108 102 97 93 95 105 93 63 68 103 102 109
198 169 182 170 209 229 200 238 282 183 232 233 221 230 244 258 269 269 214 198 199 233 254 270 244 222 218 218 221 216 216 225 205 206 199 200 202 195 182 174 160 160 152 144 143 138 133 126 122 121 119 115 98 82 109 103 93 100 105 96 75 52 46 69 48 27 28 65 67 74 68 73 79 81 84 94 103 106 106 104 102 95 104 111 111 111 115 116 119 111 107 111 102 82 66 93 104
98 94 113 208 218 282 284 273 254 204 281 234 230 240 249 260 258 263 243 179 236 255 255 247 240 227 221 221 219 216 214 218 191 197 193 195 201 203 196 172 163 160 160 154 157 155 153 149 139 133 139 138 135 132 126 127 122 112 80 60 84 71 76 74 61 33 45 55 58 64 60 58 68 78 72 85 93 99 96 100 99 87 93 105 108 110 118 118 114 114 111 100 115 112 78 54 73
144 120 180 276 155 250 235 242 1 307 173 292 270 263 257 253 260 262 248 149 237 232 239 244 242 228 226 219 220 212 210 135 176 197 205 202 203 202 190 186 165 161 178 167 167 169 155 153 147 142 150 148 146 136 131 103 48 61 119 113 101 84 74 63 68 43 30 58 54 57 56 53 57 63 67 79 88 95 103 98 97 101 99 99 94 98 100 104 114 117 119 91 24 105 105 355 337
64 191 221 292 267 246 276 260 326 284 116 260 292 277 265 257 255 265 258 231 238 231 222 233 230 233 229 222 217 201 184 199 188 199 191 195 195 193 182 186 185 181 172 175 167 161 160 158 153 154 153 140 119 111 109 100 103 92 101 107 95 95 64 73 80 73 56 64 55 53 56 51 59 63 59 69 87 88 98 101 98 101 103 120 113 103 108 109 115 126 134 127 111 54 93 42 27
159 113 159 234 235 3 297 308 5 4 176 278 328 301 279 273 252 250 251 234 235 239 238 242 235 236 228 220 205 197 201 185 192 193 195 190 189 189 182 186 189 173 172 168 171 166 166 163 160 152 141 123 109 103 102 86 91 91 86 88 77 78 109 92 86 70 66 66 62 59 36 38 27 54 64 78 88 83 96 106 102 93 89 81 118 121 115 113 110 108 112 120 127 117 64 46 26
243 195 206 222 199 232 194 253 317 278 354 55 318 283 277 238 256 262 251 254 266 260 252 258 250 236 240 237 209 202 196 189 190 191 190 186 189 192 185 181 177 183 179 177 173 171 167 168 159 147 134 129 115 116 119 122 114 99 99 91 96 99 81 82 82 63 59 81 77 37 32 27 49 69 68 73 87 96 89 94 99 95 95 84 96 108 110 116 110 112 124 130 126 138 127 120 30
284 226 199 215 212 231 272 331 6 0 328 352 50 317 274 280 248 251 277 342 288 262 230 247 247 236 220 226 220 197 204 192 188 189 189 186 181 174 182 182 190 186 185 184 174 166 157 155 147 141 127 128 132 131 138 142 143 138 135 124 121 114 114 116 118 131 120 81 74 90 56 46 61 71 66 73 80 91 93 92 100 105 101 96 98 106 114 104 90 91 71 120 99 67 129 114 89
207 272 196 210 211 196 188 264 70 292 245 300 40 218 288 223 237 237 254 257 262 280 240 252 253 240 216 225 212 195 192 186 193 184 174 173 182 180 186 188 189 188 188 168 157 156 155 150 146 143 143 141 140 146 151 148 144 154 146 142 147 151 138 90 79 68 97 85 85 75 72 54 51 79 73 80 88 94 99 98 102 101 101 103 103 102 95 97 93 86 81 88 99 123 124 109 126
236 251 151 163 151 188 219 174 189 241 270 288 58 111 283 294 242 214 221 234 258 275 276 264 248 231 224 225 211 198 192 189 186 187 183 183 181 184 186 186 186 188 163 156 160 155 154 153 147 143 139 143 146 150 155 163 153 153 129 114 103 109 125 136 134 112 80 97 91 79 78 67 58 65 87 80 87 96 103 99 98 100 97 87 94 90 101 106 97 74 78 88 78 61 97 127 142
218 245 136 145 170 179 121 151 187 247 25 289 334 183 308 259 280 354 138 221 264 261 254 258 262 231 224 219 211 203 196 192 183 179 183 183 186 189 184 182 183 167 159 163 166 161 155 151 143 134 136 144 152 156 155 161 158 141 131 124 104 70 91 104 111 101 106 107 99 83 82 78 72 62 64 85 78 86 90 101 98 95 94 91 93 94 86 83 88 95 80 75 82 63 62 98 104
243 119 90 86 80 68 103 92 103 321 45 260 184 175 221 279 250 166 358 188 235 240 244 251 268 230 221 221 218 207 196 186 187 187 182 185 185 183 180 170 172 173 160 157 154 149 149 148 147 149 152 159 158 158 153 145 138 132 134 129 121 118 117 107 107 119 119 118 110 104 98 93 88 80 65 64 77 74 89 91 92 93 98 102 96 103 101 88 84 83 82 92 95 91 65 80 94
132 111 79 33 44 36 31 63 86 43 259 252 183 197 164 278 291 178 137 201 205 225 263 278 294 283 259 240 215 199 191 183 181 179 181 182 178 176 167 176 176 157 160 159 154 155 155 154 156 162 162 155 159 160 153 152 139 143 144 151 141 138 141 137 129 116 123 120 127 127 122 111 89 90 81 68 71 83 84 83 95 98 99 105 100 92 89 96 91 91 91 84 75 85 83 87 82
128 107 124 74 348 14 36 340 39 124 265 125 235 186 177 217 290 272 241 287 272 205 233 258 287 268 258 225 212 197 184 181 174 171 174 169 161 179 177 176 175 168 162 164 162 158 160 161 159 158 157 159 159 152 145 146 147 143 145 156 153 150 151 155 153 154 165 152 148 143 136 115 105 92 89 94 79 75 93 92 94 97 97 96 90 98 100 102 101 96 87 87 87 85 89 90 92
86 96 89 114 247 37 276 24 246 194 240 165 352 134 350 239 244 243 268 262 260 224 225 233 238 262 265 247 209 184 174 168 177 182 174 178 180 179 184 179 173 176 176 170 167 165 165 165 165 160 165 162 161 159 158 159 154 157 159 158 155 154 158 159 160 157 162 157 155 148 152 143 138 123 128 112 105 107 117 114 109 109 101 93 108 104 107 109 109 104 103 97 95 92 93 101 100
134 154 148 118 133 214 255 267 286 312 291 265 109 49 250 290 297 217 253 247 232 237 231 231 234 247 251 231 197 176 177 181 183 183 189 188 185 185 184 179 180 177 176 172 169 169 169 168 170 169 169 167 162 162 161 164 169 162 162 163 162 162 163 164 163 159 162 159 157 159 162 157 156 153 148 141 146 125 97 104 113 100 100 105 104 104 104 105 108 106 106 102 97 97 95 96 101
201 108 160 184 155 159 210 195 214 231 227 291 280 105 235 112 246 246 241 285 302 256 263 253 255 260 280 265 178 174 180 190 185 187 192 193 192 184 183 182 179 179 177 172 170 172 168 170 172 173 163 169 167 169 164 168 165 161 166 165 165 168 162 164 167 165 158 155 158 153 152 148 145 146 143 139 129 117 115 111 106 101 102 102 103 104 102 100 101 99 97 103 101 107 107 108 107
229 171 60 94 218 139 235 199 178 264 332 332 215 214 200 201 256 283 235 276 285 248 259 257 265 249 234 206 184 193 196 190 187 192 195 196 190 185 185 185 179 178 178 175 175 172 172 176 174 174 170 170 173 169 175 169 168 164 161 165 171 164 158 149 148 150 150 148 150 152 150 144 135 129 123 127 124 123 129 113 98 100 99 98 98 106 110 108 109 107 105 107 105 106 110 105 110
205 111 204 205 163 121 81 37 86 93 40 254 129 279 273 300 271 234 251 242 251 261 261 252 252 250 198 218 209 209 201 192 190 194 193 186 181 192 191 185 179 178 180 182 181 178 177 172 172 171 171 171 175 178 171 169 163 161 170 168 161 160 162 163 163 157 150 137 132 131 134 131 124 128 132 130 126 118 120 116 110 105 96 94 97 96 107 112 111 109 116 116 112 112 104 110 114
100 192 225 148 119 106 146 231 351 83 218 273 139 243 282 62 283 2 345 273 262 262 249 235 242 228 220 226 215 206 205 204 202 197 188 182 185 186 186 189 186 182 181 182 183 178 179 175 174 170 169 175 183 174 170 168 165 168 166 167 168 167 163 160 156 156 146 137 131 125 122 131 148 148 139 134 128 125 114 111 111 105 104 102 110 115 119 121 115 105 111 108 119 119 109 101 112
143 193 195 129 233 251 287 88 254 216 251 276 278 268 267 191 254 221 226 200 243 244 246 246 245 229 231 224 224 216 205 199 194 195 190 186 187 186 184 187 188 187 186 184 178 175 177 178 178 176 177 180 176 171 168 171 173 169 171 170 166 162 159 149 141 141 144 147 148 149 151 149 137 143 140 141 135 128 120 112 115 116 118 121 121 129 129 120 120 119 118 123 126 121 120 121 134
57 81 151 78 99 166 135 198 190 120 265 38 281 76 272 145 219 181 233 221 235 249 276 247 241 233 227 214 211 207 202 201 200 198 196 190 186 184 184 182 183 186 186 186 179 177 183 181 178 180 176 173 167 169 169 173 177 169 168 161 166 163 156 152 152 151 155 158 158 155 151 155 163 149 146 140 138 136 133 127 126 128 128 132 137 138 135 128 123 128 136 133 138 127 124 129 133
183 135 196 172 29 249 114 337 145 175 184 183 285 301 264 251 206 198 227 230 245 226 240 248 246 252 230 208 207 210 205 200 201 199 191 186 184 179 185 187 185 184 187 182 185 187 184 177 181 180 177 175 177 177 174 178 170 174 165 169 169 162 158 152 150 160 158 161 158 158 165 158 141 155 150 149 148 144 139 137 136 140 141 151 153 147 146 139 132 132 134 135 135 136 130 136 135
179 180 193 184 147 157 157 249 66 116 136 244 161 252 273 228 196 202 219 233 223 243 234 251 263 233 207 204 213 206 204 206 197 194 186 184 179 177 179 178 178 182 187 187 190 182 183 188 188 181 179 180 177 183 181 172 174 169 172 169 168 161 155 154 156 160 164 163 165 168 162 152 161 158 156 152 151 146 140 141 142 144 148 157 160 151 146 143 141 139 143 144 144 142 139 139 138